{"data":{"norad_id":55157,"intl_designator":"2023-004T","name":"ONEWEB-0616","alt_names":[],"object_type":"PAYLOAD","status":"ACTIVE","operator":null,"country":"UK","launch_date":"2023-01-10","launch_site_code":"AFETR","launch_vehicle":null,"mission":null,"orbit_class":"UNKNOWN","rcs_meters":null,"size_class":null,"mass_kg":null,"dimensions":null,"purposes":["comms"],"wikipedia_slug":null,"has_3d_model":false,"image_url":null,"decayed_at":null,"tle_current":{"epoch":"2026-09-20T05:09:44.767008Z","epoch_age_seconds":50446,"freshness":"FRESH","line1":"1 55157U 23004T   26263.21510147  .00000108  00000+0  24444-3 0  9991","line2":"2 55157  87.9199 346.9988 0002227  76.8543 283.2837 13.17650649180218","mean_motion":13.17650649,"eccentricity":0.0002227,"inclination_deg":87.9199,"raan_deg":346.9988,"arg_perigee_deg":76.8543,"mean_anomaly_deg":283.2837,"bstar":0.00024444,"rev_number":18021,"period_min":109.28541651711,"perigee_km":1192.0206929217,"apogee_km":1195.3931922137,"semimajor_km":7571.8439425677,"source":"CELESTRAK","updated_at":"2026-09-20T09:00:44.753562Z"}}}